Time,TemperatureF,DewpointF,PressureIn,WindDirection,WindDirectionDegrees,WindSpeedMPH,WindSpeedGustMPH,Humidity,HourlyPrecipIn,Conditions,Clouds,dailyrainin,SoftwareType,DateUTC
2013-07-24 00:05:00,71.5,65.0,29.65,NNE,19,0.0,1.0,80,0.00,,,0.00,weatherlink.com 1.10,2013-07-24 07:05:00,
2013-07-24 00:20:00,70.9,65.0,29.65,NNE,19,1.0,1.0,81,0.00,,,0.00,weatherlink.com 1.10,2013-07-24 07:20:00,
2013-07-24 00:35:00,70.5,65.0,29.65,NNE,19,0.0,0.0,83,0.00,,,0.00,weatherlink.com 1.10,2013-07-24 07:35:00,
2013-07-24 00:50:00,69.9,65.0,29.64,NNE,19,0.0,1.0,84,0.00,,,0.00,weatherlink.com 1.10,2013-07-24 07:50:00,
2013-07-24 01:05:00,69.5,65.0,29.65,NNE,19,0.0,1.0,85,0.00,,,0.00,weatherlink.com 1.10,2013-07-24 08:05:00,
2013-07-24 01:20:00,69.1,65.0,29.64,NNE,19,0.0,0.0,86,0.00,,,0.00,weatherlink.com 1.10,2013-07-24 08:20:00,
2013-07-24 01:35:00,68.7,65.0,29.64,NNE,19,0.0,0.0,88,0.00,,,0.00,weatherlink.com 1.10,2013-07-24 08:35:00,
2013-07-24 01:50:00,68.4,64.0,29.64,NNE,19,0.0,1.0,87,0.00,,,0.00,weatherlink.com 1.10,2013-07-24 08:50:00,
2013-07-24 02:05:00,68.2,65.0,29.63,NNE,17,0.0,2.0,88,0.00,,,0.00,weatherlink.com 1.10,2013-07-24 09:05:00,
2013-07-24 02:20:00,67.9,64.0,29.63,NNE,26,0.0,2.0,88,0.00,,,0.00,weatherlink.com 1.10,2013-07-24 09:20:00,
2013-07-24 02:35:00,68.0,65.0,29.64,NNE,26,0.0,1.0,89,0.00,,,0.00,weatherlink.com 1.10,2013-07-24 09:35:00,
2013-07-24 02:50:00,67.8,64.0,29.64,NW,323,2.0,4.0,86,0.00,,,0.00,weatherlink.com 1.10,2013-07-24 09:50:00,
2013-07-24 03:05:00,70.4,64.0,29.64,NNW,339,1.0,3.0,80,0.00,,,0.00,weatherlink.com 1.10,2013-07-24 10:05:00,
2013-07-24 03:20:00,70.2,63.0,29.64,West,273,0.0,4.0,79,0.00,,,0.00,weatherlink.com 1.10,2013-07-24 10:20:00,
2013-07-24 03:35:00,69.9,64.0,29.64,West,273,0.0,1.0,81,0.00,,,0.00,weatherlink.com 1.10,2013-07-24 10:35:00,
2013-07-24 03:50:00,69.3,64.0,29.64,West,273,0.0,1.0,82,0.00,,,0.00,weatherlink.com 1.10,2013-07-24 10:50:00,
2013-07-24 04:05:00,68.8,64.0,29.63,WNW,286,0.0,1.0,84,0.00,,,0.00,weatherlink.com 1.10,2013-07-24 11:05:00,
2013-07-24 04:20:00,68.1,64.0,29.64,WNW,286,0.0,1.0,85,0.00,,,0.00,weatherlink.com 1.10,2013-07-24 11:20:00,
2013-07-24 04:35:00,67.3,64.0,29.64,WNW,286,0.0,1.0,88,0.00,,,0.00,weatherlink.com 1.10,2013-07-24 11:35:00,
2013-07-24 04:50:00,66.9,64.0,29.65,WNW,286,0.0,2.0,89,0.00,,,0.00,weatherlink.com 1.10,2013-07-24 11:50:00,
2013-07-24 05:05:00,66.5,63.0,29.65,WNW,286,0.0,1.0,89,0.00,,,0.00,weatherlink.com 1.10,2013-07-24 12:05:00,
2013-07-24 05:20:00,66.3,63.0,29.66,WNW,286,0.0,0.0,90,0.00,,,0.00,weatherlink.com 1.10,2013-07-24 12:20:00,
2013-07-24 05:35:00,66.2,64.0,29.65,WNW,286,0.0,2.0,91,0.00,,,0.00,weatherlink.com 1.10,2013-07-24 12:35:00,
2013-07-24 05:50:00,66.3,64.0,29.65,WNW,286,1.0,2.0,91,0.00,,,0.00,weatherlink.com 1.10,2013-07-24 12:50:00,
2013-07-24 06:05:00,67.0,64.0,29.65,WNW,286,1.0,2.0,89,0.00,,,0.00,weatherlink.com 1.10,2013-07-24 13:05:00,
2013-07-24 06:20:00,68.2,64.0,29.65,WNW,286,1.0,1.0,87,0.00,,,0.00,weatherlink.com 1.10,2013-07-24 13:20:00,
2013-07-24 06:35:00,70.3,66.0,29.65,WNW,287,0.0,1.0,86,0.00,,,0.00,weatherlink.com 1.10,2013-07-24 13:35:00,
2013-07-24 06:50:00,72.2,66.0,29.66,SSE,148,1.0,2.0,82,0.00,,,0.00,weatherlink.com 1.10,2013-07-24 13:50:00,
2013-07-24 07:05:00,75.9,67.0,29.66,ESE,123,0.0,1.0,74,0.00,,,0.00,weatherlink.com 1.10,2013-07-24 14:05:00,
2013-07-24 07:21:00,79.6,65.0,29.66,ESE,123,0.0,1.0,62,0.00,,,0.00,weatherlink.com 1.10,2013-07-24 14:21:00,
2013-07-24 07:36:00,80.2,65.0,29.66,ESE,121,1.0,3.0,60,0.00,,,0.00,weatherlink.com 1.10,2013-07-24 14:36:00,
2013-07-24 07:51:00,79.3,65.0,29.66,NW,315,0.0,4.0,61,0.00,,,0.00,weatherlink.com 1.10,2013-07-24 14:51:00,
2013-07-24 08:06:00,81.0,65.0,29.66,NE,51,0.0,3.0,59,0.00,,,0.00,weatherlink.com 1.10,2013-07-24 15:06:00,
2013-07-24 08:21:00,83.1,65.0,29.66,East,79,1.0,3.0,55,0.00,,,0.00,weatherlink.com 1.10,2013-07-24 15:21:00,
2013-07-24 08:36:00,84.0,64.0,29.66,North,355,0.0,2.0,51,0.00,,,0.00,weatherlink.com 1.10,2013-07-24 15:36:00,
2013-07-24 09:06:00,86.3,64.0,29.65,ENE,65,1.0,2.0,48,0.00,,,0.00,weatherlink.com 1.10,2013-07-24 16:06:00,
2013-07-24 09:21:00,87.2,65.0,29.65,NNW,329,4.0,4.0,48,0.00,,,0.00,weatherlink.com 1.10,2013-07-24 16:21:00,
2013-07-24 09:36:00,87.2,66.0,29.65,ESE,103,0.0,3.0,49,0.00,,,0.00,weatherlink.com 1.10,2013-07-24 16:36:00,
2013-07-24 09:51:00,87.9,66.0,29.65,ESE,117,2.0,4.0,49,0.00,,,0.00,weatherlink.com 1.10,2013-07-24 16:51:00,
2013-07-24 10:06:00,88.6,66.0,29.64,WSW,247,2.0,3.0,47,0.00,,,0.00,weatherlink.com 1.10,2013-07-24 17:06:00,
2013-07-24 10:21:00,88.8,67.0,29.64,SW,224,2.0,5.0,49,0.00,,,0.00,weatherlink.com 1.10,2013-07-24 17:21:00,
2013-07-24 10:36:00,90.6,68.0,29.63,SW,227,5.0,5.0,47,0.00,,,0.00,weatherlink.com 1.10,2013-07-24 17:36:00,
2013-07-24 10:51:00,91.4,69.0,29.62,WSW,255,2.0,4.0,48,0.00,,,0.00,weatherlink.com 1.10,2013-07-24 17:51:00,
2013-07-24 11:06:00,91.7,67.0,29.61,WNW,294,0.0,5.0,45,0.00,,,0.00,weatherlink.com 1.10,2013-07-24 18:06:00,
2013-07-24 11:21:00,92.2,67.0,29.61,SW,226,1.0,4.0,44,0.00,,,0.00,weatherlink.com 1.10,2013-07-24 18:21:00,
2013-07-24 11:36:00,93.1,67.0,29.60,WNW,283,2.0,4.0,43,0.00,,,0.00,weatherlink.com 1.10,2013-07-24 18:36:00,
2013-07-24 11:51:00,93.6,66.0,29.59,East,96,0.0,4.0,40,0.00,,,0.00,weatherlink.com 1.10,2013-07-24 18:51:00,
2013-07-24 12:06:00,93.8,71.0,29.58,SSE,157,3.0,6.0,48,0.00,,,0.00,weatherlink.com 1.10,2013-07-24 19:06:00,
2013-07-24 12:21:00,94.8,66.0,29.57,SE,126,1.0,4.0,39,0.00,,,0.00,weatherlink.com 1.10,2013-07-24 19:21:00,
2013-07-24 12:36:00,95.7,68.0,29.57,West,263,4.0,4.0,40,0.00,,,0.00,weatherlink.com 1.10,2013-07-24 19:36:00,
2013-07-24 12:52:00,97.7,63.0,29.56,SSW,201,1.0,5.0,32,0.00,,,0.00,weatherlink.com 1.10,2013-07-24 19:52:00,
2013-07-24 13:07:00,97.5,64.0,29.56,West,279,1.0,4.0,33,0.00,,,0.00,weatherlink.com 1.10,2013-07-24 20:07:00,
2013-07-24 13:22:00,98.0,65.0,29.54,East,90,3.0,7.0,34,0.00,,,0.00,weatherlink.com 1.10,2013-07-24 20:22:00,
2013-07-24 13:37:00,99.0,63.0,29.54,West,281,3.0,6.0,31,0.00,,,0.00,weatherlink.com 1.10,2013-07-24 20:37:00,
2013-07-24 13:52:00,100.4,64.0,29.54,ESE,122,1.0,6.0,30,0.00,,,0.00,weatherlink.com 1.10,2013-07-24 20:52:00,
2013-07-24 14:07:00,96.9,64.0,29.54,SSW,209,5.0,16.0,34,0.00,,,0.00,weatherlink.com 1.10,2013-07-24 21:07:00,
2013-07-24 14:22:00,95.6,65.0,29.53,SW,228,8.0,14.0,36,0.00,,,0.00,weatherlink.com 1.10,2013-07-24 21:22:00,
2013-07-24 14:37:00,95.4,62.0,29.53,SW,217,4.0,13.0,33,0.00,,,0.00,weatherlink.com 1.10,2013-07-24 21:37:00,
2013-07-24 14:52:00,93.7,64.0,29.53,SE,145,0.0,5.0,38,0.00,,,0.00,weatherlink.com 1.10,2013-07-24 21:52:00,
2013-07-24 15:07:00,92.9,65.0,29.53,SSE,150,0.0,2.0,40,0.00,,,0.00,weatherlink.com 1.10,2013-07-24 22:07:00,
2013-07-24 15:22:00,93.0,63.0,29.53,NW,314,1.0,4.0,37,0.00,,,0.00,weatherlink.com 1.10,2013-07-24 22:22:00,
2013-07-24 15:37:00,92.3,64.0,29.54,NNE,17,5.0,8.0,39,0.00,,,0.00,weatherlink.com 1.10,2013-07-24 22:37:00,
2013-07-24 15:52:00,90.2,64.0,29.54,NNE,15,4.0,11.0,42,0.00,,,0.00,weatherlink.com 1.10,2013-07-24 22:52:00,
2013-07-24 16:07:00,89.0,67.0,29.53,West,265,1.0,3.0,48,0.00,,,0.00,weatherlink.com 1.10,2013-07-24 23:07:00,
2013-07-24 16:22:00,88.4,66.0,29.53,North,355,0.0,7.0,48,0.00,,,0.00,weatherlink.com 1.10,2013-07-24 23:22:00,
2013-07-24 16:37:00,90.4,67.0,29.52,NW,305,1.0,4.0,46,0.00,,,0.00,weatherlink.com 1.10,2013-07-24 23:37:00,
2013-07-24 16:52:00,93.7,68.0,29.51,NNW,344,4.0,8.0,43,0.00,,,0.00,weatherlink.com 1.10,2013-07-24 23:52:00,
2013-07-24 17:07:00,93.6,65.0,29.51,North,11,0.0,6.0,39,0.00,,,0.00,weatherlink.com 1.10,2013-07-25 00:07:00,
2013-07-24 17:22:00,92.8,64.0,29.50,NNE,21,0.0,2.0,39,0.00,,,0.00,weatherlink.com 1.10,2013-07-25 00:22:00,
2013-07-24 17:37:00,92.4,63.0,29.50,East,90,0.0,5.0,38,0.00,,,0.00,weatherlink.com 1.10,2013-07-25 00:37:00,
2013-07-24 17:52:00,92.6,63.0,29.51,ENE,70,3.0,4.0,37,0.00,,,0.00,weatherlink.com 1.10,2013-07-25 00:52:00,
2013-07-24 18:07:00,92.5,62.0,29.52,ENE,68,1.0,3.0,36,0.00,,,0.00,weatherlink.com 1.10,2013-07-25 01:07:00,
2013-07-24 18:22:00,93.9,65.0,29.52,ENE,67,0.0,2.0,39,0.00,,,0.00,weatherlink.com 1.10,2013-07-25 01:22:00,
2013-07-24 18:37:00,94.1,69.0,29.52,ENE,67,0.0,1.0,44,0.00,,,0.00,weatherlink.com 1.10,2013-07-25 01:37:00,
2013-07-24 18:52:00,91.8,68.0,29.52,ENE,67,0.0,1.0,46,0.00,,,0.00,weatherlink.com 1.10,2013-07-25 01:52:00,
2013-07-24 19:08:00,89.3,67.0,29.53,ENE,67,0.0,1.0,48,0.00,,,0.00,weatherlink.com 1.10,2013-07-25 02:08:00,
2013-07-24 19:22:00,87.3,68.0,29.53,ESE,103,0.0,1.0,52,0.00,,,0.00,weatherlink.com 1.10,2013-07-25 02:22:00,
2013-07-24 19:37:00,85.4,67.0,29.53,ESE,103,0.0,0.0,55,0.00,,,0.00,weatherlink.com 1.10,2013-07-25 02:37:00,
2013-07-24 19:52:00,83.7,66.0,29.53,ESE,103,1.0,2.0,55,0.00,,,0.00,weatherlink.com 1.10,2013-07-25 02:52:00,
2013-07-24 20:07:00,82.9,68.0,29.54,ESE,103,0.0,1.0,60,0.00,,,0.00,weatherlink.com 1.10,2013-07-25 03:07:00,
2013-07-24 20:22:00,81.6,67.0,29.55,ESE,103,0.0,1.0,61,0.00,,,0.00,weatherlink.com 1.10,2013-07-25 03:22:00,
2013-07-24 20:37:00,81.0,66.0,29.56,ESE,103,0.0,0.0,61,0.00,,,0.00,weatherlink.com 1.10,2013-07-25 03:37:00,
2013-07-24 20:52:00,80.5,67.0,29.57,ESE,103,0.0,1.0,64,0.00,,,0.00,weatherlink.com 1.10,2013-07-25 03:52:00,
2013-07-24 21:07:00,80.0,67.0,29.57,ESE,103,0.0,1.0,64,0.00,,,0.00,weatherlink.com 1.10,2013-07-25 04:07:00,
2013-07-24 21:22:00,79.5,68.0,29.58,ESE,103,0.0,0.0,68,0.00,,,0.00,weatherlink.com 1.10,2013-07-25 04:22:00,
2013-07-24 21:37:00,79.7,66.0,29.58,ESE,106,2.0,6.0,63,0.00,,,0.00,weatherlink.com 1.10,2013-07-25 04:37:00,
2013-07-24 21:52:00,80.6,66.0,29.58,ESE,115,1.0,2.0,62,0.00,,,0.00,weatherlink.com 1.10,2013-07-25 04:52:00,
2013-07-24 22:07:00,80.3,67.0,29.58,ESE,115,0.0,1.0,65,0.00,,,0.00,weatherlink.com 1.10,2013-07-25 05:07:00,
2013-07-24 22:22:00,79.3,68.0,29.58,ESE,115,1.0,2.0,68,0.00,,,0.00,weatherlink.com 1.10,2013-07-25 05:22:00,
2013-07-24 22:37:00,78.3,67.0,29.58,ESE,117,0.0,0.0,69,0.00,,,0.00,weatherlink.com 1.10,2013-07-25 05:37:00,
2013-07-24 22:52:00,77.2,67.0,29.58,ESE,117,1.0,1.0,71,0.00,,,0.00,weatherlink.com 1.10,2013-07-25 05:52:00,
2013-07-24 23:07:00,76.2,67.0,29.58,ESE,117,0.0,1.0,74,0.00,,,0.00,weatherlink.com 1.10,2013-07-25 06:07:00,
2013-07-24 23:22:00,75.5,67.0,29.58,ESE,117,0.0,1.0,76,0.00,,,0.00,weatherlink.com 1.10,2013-07-25 06:22:00,
2013-07-24 23:37:00,75.4,68.0,29.59,ESE,120,0.0,2.0,77,0.00,,,0.00,weatherlink.com 1.10,2013-07-25 06:37:00,
2013-07-24 23:52:00,75.7,68.0,29.59,ESE,118,1.0,2.0,76,0.00,,,0.00,weatherlink.com 1.10,2013-07-25 06:52:00,